User: anonymous   Login
Location: St Paul
(33.9360°N, 83.4200°W)
Time: 01:17:46
(UTC-04:00)
Language:

METEOR-M - Orbit

View from above orbital plane
View from above orbital plane
View from above satellite
View from above satellite

Ground track
Ground track

The orbit data is extracted from the following two-line orbital elements,

1 35865U 09049A   18198.65463028  .00000002  00000-0  19699-4 0  9990
2 35865  98.4055 207.3033 0003620  80.4659 279.6929 14.22156901458317
Epoch (UTC): 17 July 2018 15:42:40
Eccentricity: 0.0003620
inclination: 98.4055°
perigee height: 815 km
apogee height: 820 km
right ascension of ascending node: 207.3033°
argument of perigee: 80.4659°
revolutions per day: 14.22156901
mean anomaly at epoch: 279.6929°
orbit number at epoch: 45831

The dashed part of the orbit path shows where the satellite is in the earth's shadow,  

DLR